Вернуться в каталог

IRIDIUM 33 DEB

АктивенPO
NORAD 34350·DEBRIS·🇺🇸 United States

Запущен Sep 14, 1997 с Baikonur Cosmodrome

Loading…

Ближайшие Пролёты (ближайшие 24 часа)

TLE

СвежийSource: Space-Track

Эпоха: Sep 14, 2026, 10:16 UTC

1 34350U 97051ES  26257.42786208  .00000820  00000-0  22432-3 0  9992
2 34350  86.3230 243.0933 0019056 308.6343 205.0093 14.46008862922765

Отслеживайте IRIDIUM 33 DEB в реальном времени с AllMySat

Download on the App Store